TDRS 11

Last updated on Wed Sep 17 2025 00:02:40 GMT+0000 (Coordinated Universal Time)

1 39070U 13004A 25259.55530699 .00000062 00000+0 00000+0 0 9998 2 39070 3.1430 25.5933 0003075 54.7290 300.9317 1.00273676 43946
UTC large
Height (km)
Speed (km/s)
/
Latitude / Longitude
Inclination (degrees)
Orbital Period (minutes)
Azimuth
Elevation
Range (km)
Doppler Factor

Next 0 passes for location: London (51.5072 / 0.1276)

Sorry there are no passes over London.